394  
NZUS01 KOTX 221625  
RWROTX  
 
EASTERN WASHINGTON/NORTHERN IDAHO ROUNDUP  
NATIONAL WEATHER SERVICE, SPOKANE WA  
800 AM PST TUE JAN 22 2019  
 
NOTE: "FAIR" INDICATED FEW OR NO CLOUDS BELOW 12,000 FEET WITH NO  
SIGNIFICANT WEATHER AND/OR S TO VISIBILITY
.  
   
..NORTHEAST WASHINGTON AND NORTHERN IDAHO PANHANDLE
 
 
 
CITY SKY/WX TMP DP RH WIND PRES REMARKS
 
SPOKANE INTL CLOUDY 30 26 85 S7 30.36R WCI 23  
SPOKANE DOWNTO CLOUDY 34 27 75 CALM 30.38S  
COEUR D ALENE CLOUDY 30 27 88 S5 30.37S WCI 25  
DEER PARK CLOUDY 30 27 88 S3 30.37S  
SANDPOINT CLOUDY 32 28 86 SW3 30.37R  
BONNERS FERRY LGT SNOW 30 27 86 CALM 30.32S  
   
..SOUTHEAST WASHINGTON AND SOUTHERN IDAHO PANHANDLE
 
 
 
CITY SKY/WX TMP DP RH WIND PRES REMARKS
 
WALLA WALLA CLOUDY 40 28 62 S10 30.41F  
PULLMAN/MOSCOW CLOUDY 30 25 81 SE10 30.39S WCI 21  
LEWISTON CLOUDY 30 25 81 CALM 30.44S  
LOWELL N/A 31 29 92 CALM 30.50R  
GRANGEVILLE PTSUNNY 28 23 80 CALM 30.37F  
   
..COLUMBIA BASIN
 
 
 
CITY SKY/WX TMP DP RH WIND PRES REMARKS
 
EPHRATA CLOUDY 30 27 88 N7 30.36F WCI 23  
MOSES LAKE CLOUDY 31 29 92 SE5 30.37F WCI 26  
PASCO CLOUDY 38 31 76 S6 30.44R  
RICHLAND CLOUDY 39 33 80 CALM 30.43S  
HERMISTON CLOUDY 34 28 79 CALM 30.43S  
PENDLETON CLOUDY 36 26 67 S9 30.41F  
   
..EAST SLOPES CASCADES
 
 
 
CITY SKY/WX TMP DP RH WIND PRES REMARKS
 
THE DALLES CLOUDY 35 32 88 CALM 30.46F  
YAKIMA CLOUDY 32 27 81 CALM 30.39F  
ELLENSBURG CLOUDY 31 26 82 CALM 30.35F  
STAMPEDE PASS CLOUDY 28 24 85 CALM 30.26F  
WENATCHEE CLOUDY 31 24 75 E3 30.35S  
WINTHROP FAIR 19 17 93 CALM 30.34F  
OMAK CLOUDY 29 25 85 CALM 30.35F  
SUNNYSIDE CLOUDY 31 31 99 CALM 30.42R  
   
..SOUTHERN BRITISH COLUMBIA
 
 
 
CITY SKY/WX TMP DP RH WIND PRES REMARKS
 
PENTICTON CLOUDY 32 25 74 S14G21 30.31F WCI 22  
CASTLEGAR LGT SNOW 27 25 93 SE8 30.36F WCI 18  
CRANBROOK PTCLDY 12 9 85 CALM 30.21F  
OSOYOOS N/A 30 27 86 CALM N/A  
CRESTON N/A 28 25 86 CALM N/A  
   
..WESTERN MONTANA
 
 
 
CITY SKY/WX TMP DP RH WIND PRES REMARKS
 
KALISPELL CLOUDY 23 21 92 S6 30.31R WCI 16  
LIBBY N/A 14 12 92 CALM N/A  
MISSOULA CLOUDY 23 17 78 E7 30.36S WCI 15  
   
..NEIGHBORING CITIES
 
 
 
CITY SKY/WX TMP DP RH WIND PRES REMARKS
 
SEATTLE CLOUDY 45 34 65 S15 30.35F  
PORTLAND CLOUDY 42 37 82 SE7 30.46F  
BOISE MOCLDY 25 20 81 CALM 30.46R  
GREAT FALLS PTCLDY 22 16 78 SW17 30.08F WCI 8  
CALGARY MOCLDY 34 5 29 W12G20 29.84R WCI 25  
 
CLICK HERE TO GO TO PREVIOUS BULLETINS.

The Nexlab WA Page
The Nexlab ID Page Main Text Page